Date String (YYYY-MM-DD hh:mm:ss) UTC,Instrument flags,Ambient pressure (hPa),Sample flow (lpm),Bypass flow (lpm),Sample temperature (°C),Ambient temperature (°C),ASC tube jacket temperature (°C),LED temperature (°C),Box temperature (°C),Sample RH (%),Span deviation,Mass concentration (μg/m³),Mass concentration (μg/m³),Mass concentration (μg/m³)
DateTimeUTC,F1_M11,P_M11,Q1_M11,Q2_M11,T1_M11,T2_M11,T3_M11,T4_M11,T5_M11,U1_M11,ZSPAN_M11,X0_M11,X2_M11,X1_M11
2023-04-12 07:00:00,,0827.8,5.01,0.00,30.1,28.4,00.0,38.5,31.5,06.5,0000.0,0008.63,0003.00,0001.83
2023-04-12 07:01:00,,0827.8,5.00,0.00,30.1,28.4,00.0,38.5,31.5,06.5,0000.0,0008.66,0003.05,0001.85
2023-04-12 07:02:00,,0827.8,5.00,0.00,30.1,28.4,00.0,38.5,31.5,06.5,0000.0,0008.87,0003.12,0001.85
2023-04-12 07:03:00,,0827.8,5.00,0.00,30.1,28.4,00.0,38.5,31.5,06.6,0000.0,0009.01,0003.16,0001.85
2023-04-12 07:04:00,,0827.7,5.00,0.00,30.1,28.4,00.0,38.5,31.5,06.6,0000.0,0008.23,0003.16,0001.87
2023-04-12 07:05:00,,0827.8,5.00,0.00,30.1,28.4,00.0,38.5,31.5,06.5,0000.0,0007.90,0003.16,0001.88
2023-04-12 07:06:00,,0827.7,5.00,0.00,30.1,28.4,00.0,38.5,31.6,06.5,0000.0,0008.12,0003.17,0001.89
2023-04-12 07:07:00,,0827.8,5.00,0.00,30.1,28.4,00.0,38.5,31.6,06.5,0000.0,0008.17,0003.21,0001.90
2023-04-12 07:08:00,,0827.8,5.01,0.00,30.1,28.4,00.0,38.5,31.6,06.6,0000.0,0008.19,0003.23,0001.90
2023-04-12 07:09:00,,0827.8,5.00,0.00,30.1,28.4,00.0,38.4,31.6,06.6,0000.0,0008.05,0003.23,0001.89
2023-04-12 07:10:00,,0827.8,5.00,0.00,30.1,28.4,00.0,38.4,31.6,06.6,0000.0,0007.19,0003.22,0001.88
2023-04-12 07:11:00,,0827.8,5.01,0.00,30.1,28.4,00.0,38.4,31.6,06.6,0000.0,0007.45,0003.21,0001.89
2023-04-12 07:12:00,,0827.7,5.00,0.00,30.1,28.4,00.0,38.4,31.6,06.6,0000.0,0007.72,0003.19,0001.89
2023-04-12 07:13:00,,0827.8,5.00,0.00,30.1,28.4,00.0,38.4,31.5,06.6,0000.0,0007.86,0003.18,0001.89
2023-04-12 07:14:00,,0827.8,5.00,0.00,30.1,28.4,00.0,38.4,31.6,06.6,0000.0,0007.75,0003.13,0001.90
2023-04-12 07:15:00,,0827.7,4.99,0.00,30.1,28.4,00.0,38.4,31.5,06.6,0000.0,0007.74,0003.13,0001.90
2023-04-12 07:16:00,,0827.8,4.99,0.00,30.1,28.4,00.0,38.4,31.5,06.7,0000.0,0007.83,0003.13,0001.90
2023-04-12 07:17:00,,0827.8,5.00,0.00,30.1,28.4,00.0,38.4,31.5,06.7,0000.0,0007.50,0003.09,0001.89
2023-04-12 07:18:00,,0827.8,5.01,0.00,30.1,28.4,00.0,38.4,31.5,06.7,0000.0,0007.40,0003.02,0001.89
2023-04-12 07:19:00,,0827.8,5.00,0.00,30.1,28.4,00.0,38.4,31.5,06.7,0000.0,0007.15,0002.94,0001.89
2023-04-12 07:20:00,,0827.8,5.00,0.00,30.1,28.4,00.0,38.4,31.5,06.7,0000.0,0007.37,0002.92,0001.89
2023-04-12 07:21:00,,0827.8,5.00,0.00,30.1,28.4,00.0,38.4,31.6,06.7,0000.0,0008.07,0002.97,0001.89
2023-04-12 07:22:00,,0827.7,5.00,0.00,30.1,28.4,00.0,38.4,31.6,06.7,0000.0,0007.92,0002.99,0001.89
2023-04-12 07:23:00,,0827.7,5.00,0.00,30.1,28.4,00.0,38.4,31.5,06.7,0000.0,0007.65,0002.96,0001.89
2023-04-12 07:24:00,,0827.7,5.00,0.00,30.1,28.4,00.0,38.4,31.6,06.7,0000.0,0007.48,0002.89,0001.88
2023-04-12 07:25:00,,0827.7,4.99,0.00,30.1,28.4,00.0,38.4,31.5,06.7,0000.0,0007.53,0002.84,0001.87
2023-04-12 07:26:00,,0827.7,5.00,0.00,30.1,28.4,00.0,38.4,31.5,06.7,0000.0,0007.50,0002.78,0001.86
2023-04-12 07:27:00,,0827.7,5.00,0.00,30.0,28.4,00.0,38.4,31.5,06.8,0000.0,0007.52,0002.81,0001.86
2023-04-12 07:28:00,,0827.7,5.00,0.00,30.0,28.4,00.0,38.4,31.5,06.8,0000.0,0007.62,0002.88,0001.87
2023-04-12 07:29:00,,0827.7,5.01,0.00,30.0,28.3,00.0,38.4,31.5,06.8,0000.0,0007.97,0002.90,0001.86
2023-04-12 07:30:00,,0827.6,5.00,0.00,30.0,28.3,00.0,38.4,31.6,06.8,0000.0,0008.30,0002.95,0001.86
2023-04-12 07:31:00,,0827.7,5.00,0.00,30.0,28.4,00.0,38.4,31.5,06.8,0000.0,0008.03,0002.97,0001.86
2023-04-12 07:32:00,,0827.6,5.01,0.00,30.0,28.4,00.0,38.4,31.5,07.0,0000.0,0007.40,0002.94,0001.87
2023-04-12 07:33:00,,0827.7,5.01,0.00,30.0,28.4,00.0,38.4,31.5,07.0,0000.0,0007.41,0002.95,0001.89
2023-04-12 07:34:00,,0827.7,5.00,0.00,30.1,28.4,00.0,38.4,31.5,07.1,0000.0,0007.41,0003.01,0001.89
2023-04-12 07:35:00,,0827.7,5.00,0.00,30.1,28.4,00.0,38.4,31.6,07.4,0000.0,0008.18,0003.04,0001.89
2023-04-12 07:36:00,,0827.7,5.00,0.00,30.0,28.4,00.0,38.4,31.6,07.1,0000.0,0008.83,0003.12,0001.89
2023-04-12 07:37:00,,0827.7,4.99,0.00,30.0,28.4,00.0,38.4,31.6,07.0,0000.0,0008.91,0003.14,0001.89
2023-04-12 07:38:00,,0827.7,5.00,0.00,30.0,28.3,00.0,38.4,31.6,06.9,0000.0,0008.74,0003.12,0001.89
2023-04-12 07:39:00,,0827.6,4.99,0.00,30.0,28.3,00.0,38.4,31.5,06.9,0000.0,0008.64,0003.05,0001.87
2023-04-12 07:40:00,,0827.6,5.00,0.00,30.0,28.3,00.0,38.4,31.6,07.7,0000.0,0008.61,0003.07,0001.87
2023-04-12 07:41:00,,0827.5,5.01,0.00,30.0,28.3,00.0,38.4,31.5,07.5,0000.0,0008.61,0003.06,0001.87
2023-04-12 07:42:00,,0827.6,5.01,0.00,30.0,28.3,00.0,38.4,31.5,07.3,0000.0,0008.67,0003.09,0001.87
2023-04-12 07:43:00,,0827.6,5.00,0.00,30.0,28.3,00.0,38.4,31.5,07.5,0000.0,0008.97,0003.12,0001.87
2023-04-12 07:44:00,,0827.6,5.00,0.00,30.0,28.3,00.0,38.4,31.5,07.6,0000.0,0009.01,0003.12,0001.86
2023-04-12 07:45:00,,0827.6,5.00,0.00,30.0,28.3,00.0,38.4,31.5,07.5,0000.0,0009.03,0003.13,0001.87
2023-04-12 07:46:00,,0827.6,5.00,0.00,30.0,28.3,00.0,38.4,31.5,07.7,0000.0,0008.57,0003.17,0001.88
2023-04-12 07:47:00,,0827.5,5.00,0.00,30.0,28.3,00.0,38.4,31.5,07.4,0000.0,0008.42,0003.28,0001.91
2023-04-12 07:48:00,,0827.6,4.99,0.00,30.0,28.3,00.0,38.4,31.5,07.3,0000.0,0009.46,0003.44,0001.97
2023-04-12 07:49:00,,0827.5,5.00,0.00,30.0,28.3,00.0,38.4,31.4,07.3,0000.0,0010.11,0003.57,0001.99
2023-04-12 07:50:00,,0827.5,5.00,0.00,30.0,28.2,00.0,38.4,31.4,07.2,0000.0,0010.94,0003.73,0002.03
2023-04-12 07:51:00,,0827.5,5.00,0.00,30.0,28.2,00.0,38.4,31.5,07.2,0000.0,0011.38,0003.80,0002.04
2023-04-12 07:52:00,,0827.5,5.00,0.00,30.0,28.2,00.0,38.4,31.4,07.3,0000.0,0012.10,0003.84,0002.04
2023-04-12 07:53:00,,0827.4,5.00,0.00,30.0,28.3,00.0,38.4,31.5,07.3,0000.0,0012.70,0003.88,0002.04
2023-04-12 07:54:00,,0827.6,4.99,0.00,30.0,28.2,00.0,38.4,31.5,07.3,0000.0,0013.72,0003.86,0002.04
2023-04-12 07:55:00,,0827.4,5.01,0.00,30.0,28.2,00.0,38.4,31.5,07.5,0000.0,0014.15,0003.93,0002.06
2023-04-12 07:56:00,,0827.4,5.01,0.00,30.0,28.2,00.0,38.4,31.5,07.3,0000.0,0014.50,0004.03,0002.08
2023-04-12 07:57:00,,0827.4,4.99,0.00,30.0,28.2,00.0,38.4,31.4,07.2,0000.0,0014.40,0004.00,0002.07
2023-04-12 07:58:00,,0827.4,5.00,0.00,30.0,28.2,00.0,38.4,31.4,07.2,0000.0,0013.71,0003.88,0002.04
2023-04-12 07:59:00,,0827.4,5.00,0.00,30.0,28.2,00.0,38.4,31.4,07.1,0000.0,0012.57,0003.72,0001.99
